User: anonymous   Login
Location: Unspecified
(0.0000°N, 0.0000°E)
Time: 09:31:01
(UTC+00:00)
Language:

Spoutnik-41 - Orbit

View from above orbital plane
View from above orbital plane
View from above satellite
View from above satellite

Ground track
Ground track

The orbit data is extracted from the following two-line orbital elements,

1 25533U 98062C   99011.27784502  .36532436  12708-4  37292-3 0  1316
2 25533  51.6341  60.1503 0001083  50.3915 309.7247 16.50803227  9678
Epoch (UTC): 11 January 1999 06:40:05
Eccentricity: 0.0001083
inclination: 51.6341°
perigee height: 136 km
apogee height: 138 km
right ascension of ascending node: 60.1503°
argument of perigee: 50.3915°
revolutions per day: 16.50803227
mean anomaly at epoch: 309.7247°
orbit number at epoch: 967

The dashed part of the orbit path shows where the satellite is in the earth's shadow,  

DLR